| time (UTC) | temp F | wind direction | speed MPH | gust MPH | rain 1hr in | rain 24hr in | rain mn in | humidity % | barometer mb |
| 20260503052502 | 56 | 97 | 0.0 | 0.0 | 0.00 | 0.00 | 0.00 | 71 | 482.8 |
| 20260503051503 | 56 | 97 | 0.0 | 0.0 | 0.00 | 0.00 | 0.00 | 71 | 465.9 |
| 20260503050516 | 55 | 97 | 0.0 | 0.0 | 0.00 | 0.00 | 0.00 | 73 | 468.5 |
| 20260503045503 | 54 | 97 | 0.0 | 0.0 | 0.00 | 0.00 | 0.00 | 74 | 508.8 |
| 20260503044505 | 53 | 97 | 0.0 | 0.0 | 0.00 | 0.00 | 0.00 | 74 | 606.3 |
| 20260503043502 | 53 | 97 | 0.0 | 0.0 | 0.00 | 0.00 | 0.00 | 75 | 466.8 |
| 20260503042952 | 53 | 97 | 0.0 | 0.0 | 0.00 | 0.00 | 0.00 | 76 | 607.9 |
| 20260503041506 | 52 | 97 | 0.0 | 0.0 | 0.00 | 0.00 | 0.00 | 76 | 463.5 |
| 20260503040502 | 52 | 97 | 0.0 | 0.0 | 0.00 | 0.00 | 0.00 | 77 | 480.1 |
| 20260503035502 | 52 | 97 | 0.0 | 4.0 | 0.00 | 0.00 | 0.00 | 75 | 620.5 |
| 20260503034503 | 53 | 97 | 1.0 | 4.0 | 0.00 | 0.00 | 0.00 | 74 | 498.0 |
| 20260503033502 | 53 | 97 | 0.0 | 0.0 | 0.00 | 0.00 | 0.00 | 75 | 463.5 |
| 20260503032955 | 53 | 97 | 0.0 | 0.0 | 0.00 | 0.00 | 0.00 | 75 | 467.9 |
| 20260503031458 | 53 | 97 | 1.0 | 4.0 | 0.00 | 0.00 | 0.00 | 75 | 465.1 |
| 20260503030458 | 53 | 97 | 0.0 | 4.0 | 0.00 | 0.00 | 0.00 | 75 | 911.5 |
| 20260503025457 | 53 | 97 | 0.0 | 0.0 | 0.00 | 0.00 | 0.00 | 76 | 460.3 |
| 20260503024458 | 52 | 97 | 0.0 | 0.0 | 0.00 | 0.00 | 0.00 | 77 | 474.1 |
| 20260503023449 | 52 | 97 | 0.0 | 0.0 | 0.00 | 0.00 | 0.00 | 76 | 479.1 |
| 20260503022447 | 53 | 97 | 0.0 | 0.0 | 0.00 | 0.00 | 0.00 | 76 | 499.8 |
| 20260503021450 | 53 | 97 | 0.0 | 0.0 | 0.00 | 0.00 | 0.00 | 74 | 471.4 |
| 20260503020441 | 54 | 97 | 0.0 | 4.0 | 0.00 | 0.00 | 0.00 | 74 | 580.9 |
| 20260503015439 | 54 | 97 | 0.0 | 0.0 | 0.00 | 0.00 | 0.00 | 73 | 467.3 |
| 20260503014438 | 55 | 97 | 0.0 | 0.0 | 0.00 | 0.00 | 0.00 | 72 | 638.5 |
| 20260503013434 | 55 | 97 | 0.0 | 0.0 | 0.00 | 0.00 | 0.00 | 71 | 467.5 |
| 20260503012434 | 55 | 97 | 0.0 | 0.0 | 0.00 | 0.00 | 0.00 | 71 | 433.5 |
| 20260503011433 | 55 | 97 | 0.0 | 0.0 | 0.00 | 0.00 | 0.00 | 71 | 474.6 |
| 20260503010430 | 56 | 97 | 0.0 | 0.0 | 0.00 | 0.00 | 0.00 | 71 | 673.1 |
| 20260503005429 | 56 | 97 | 0.0 | 0.0 | 0.00 | 0.00 | 0.00 | 70 | 507.1 |
| 20260503004431 | 56 | 97 | 0.0 | 3.0 | 0.00 | 0.00 | 0.00 | 71 | 635.3 |
| 20260503003424 | 56 | 97 | 0.0 | 3.0 | 0.00 | 0.00 | 0.00 | 70 | 412.2 |
| 20260503002423 | 56 | 97 | 0.0 | 0.0 | 0.00 | 0.00 | 0.00 | 69 | 440.2 |
| 20260503001425 | 56 | 97 | 0.0 | 3.0 | 0.00 | 0.00 | 0.00 | 68 | 465.7 |
| 20260503000425 | 56 | 97 | 0.0 | 0.0 | 0.00 | 0.00 | 0.00 | 68 | 498.6 |
| 20260502235421 | 56 | 97 | 0.0 | 0.0 | 0.00 | 0.00 | 0.00 | 68 | 471.4 |
| 20260502234420 | 56 | 97 | 0.0 | 0.0 | 0.00 | 0.00 | 0.00 | 68 | 441.9 |
| 20260502233922 | 56 | 97 | 0.0 | 0.0 | 0.00 | 0.00 | 0.00 | 68 | 462.5 |
| 20260502232424 | 56 | 97 | 1.0 | 4.0 | 0.00 | 0.00 | 0.00 | 68 | 787.8 |
| 20260502231902 | 56 | 98 | 0.0 | 2.0 | 0.00 | 0.00 | 0.00 | 68 | 466.6 |
| 20260502230424 | 56 | 98 | 0.0 | 4.0 | 0.00 | 0.00 | 0.00 | 68 | 508.3 |
| 20260502225412 | 57 | 98 | 1.0 | 3.0 | 0.00 | 0.00 | 0.00 | 68 | 469.6 |
| 20260502224406 | 57 | 98 | 0.0 | 0.0 | 0.00 | 0.00 | 0.00 | 67 | 461.0 |
| 20260502223405 | 57 | 98 | 1.0 | 4.0 | 0.00 | 0.00 | 0.00 | 67 | 795.9 |
| 20260502222856 | 57 | 98 | 0.0 | 4.0 | 0.00 | 0.00 | 0.00 | 67 | 561.9 |
| 20260502221404 | 58 | 98 | 1.0 | 3.0 | 0.00 | 0.00 | 0.00 | 66 | 766.8 |
| 20260502220404 | 58 | 98 | 0.0 | 3.0 | 0.00 | 0.00 | 0.00 | 66 | 467.7 |
| 20260502215403 | 58 | 98 | 1.0 | 4.0 | 0.00 | 0.00 | 0.00 | 65 | 467.9 |
| 20260502214403 | 58 | 98 | 0.0 | 3.0 | 0.00 | 0.00 | 0.00 | 65 | 468.3 |
| 20260502213405 | 59 | 98 | 0.0 | 0.0 | 0.00 | 0.00 | 0.00 | 65 | 467.1 |
| 20260502212359 | 59 | 98 | 0.0 | 0.0 | 0.00 | 0.00 | 0.00 | 65 | 465.4 |
| 20260502211359 | 60 | 98 | 0.0 | 1.0 | 0.00 | 0.00 | 0.00 | 65 | 907.3 |
| 20260502210400 | 60 | 98 | 0.0 | 0.0 | 0.00 | 0.00 | 0.00 | 64 | 444.7 |
| 20260502205359 | 60 | 98 | 0.0 | 0.0 | 0.00 | 0.00 | 0.00 | 64 | 582.7 |
| 20260502204359 | 60 | 98 | 0.0 | 0.0 | 0.00 | 0.00 | 0.00 | 64 | 826.3 |
| 20260502203400 | 61 | 98 | 0.0 | 2.0 | 0.00 | 0.00 | 0.00 | 64 | 601.5 |
| 20260502202851 | 61 | 98 | 0.0 | 2.0 | 0.00 | 0.00 | 0.00 | 63 | 478.0 |
| 20260502201400 | 61 | 98 | 0.0 | 2.0 | 0.00 | 0.00 | 0.00 | 63 | 530.1 |
| 20260502200359 | 61 | 98 | 1.0 | 3.0 | 0.00 | 0.00 | 0.00 | 62 | 468.4 |
| 20260502195359 | 62 | 99 | 2.0 | 4.0 | 0.00 | 0.00 | 0.00 | 61 | 445.3 |
| 20260502194359 | 62 | 103 | 2.0 | 4.0 | 0.00 | 0.00 | 0.00 | 58 | 524.9 |
| 20260502193400 | 63 | 93 | 1.0 | 4.0 | 0.00 | 0.00 | 0.00 | 56 | 505.3 |
| 20260502192359 | 64 | 93 | 1.0 | 4.0 | 0.00 | 0.00 | 0.00 | 55 | 457.1 |
| 20260502191400 | 63 | 0 | 2.0 | 4.0 | 0.00 | 0.00 | 0.00 | 55 | 460.4 |
| 20260502190359 | 65 | 131 | 0.0 | 0.0 | 0.00 | 0.00 | 0.00 | 54 | 515.0 |
| 20260502185359 | 65 | 180 | 0.0 | 0.0 | 0.00 | 0.00 | 0.00 | 53 | 638.4 |
| 20260502184847 | 65 | 202 | 0.0 | 3.0 | 0.00 | 0.00 | 0.00 | 52 | 414.5 |
| 20260502183359 | 66 | 196 | 2.0 | 7.0 | 0.00 | 0.00 | 0.00 | 51 | 466.7 |
| 20260502182359 | 67 | 185 | 1.0 | 5.0 | 0.00 | 0.00 | 0.00 | 50 | 456.7 |
| 20260502181358 | 68 | 184 | 1.0 | 5.0 | 0.00 | 0.00 | 0.00 | 48 | 414.7 |
| 20260502180359 | 69 | 199 | 1.0 | 5.0 | 0.00 | 0.00 | 0.00 | 46 | 483.3 |
| 20260502170359 | 74 | 221 | 4.0 | 9.0 | 0.00 | 0.00 | 0.00 | 38 | 432.9 |
| 20260502163851 | 75 | 252 | 4.0 | 9.0 | 0.00 | 0.00 | 0.00 | 37 | 747.4 |
| 20260502162359 | 74 | 233 | 6.0 | 11.0 | 0.00 | 0.00 | 0.00 | 37 | 1125.3 |
| 20260502161359 | 75 | 259 | 4.0 | 10.0 | 0.00 | 0.00 | 0.00 | 37 | 580.5 |
| 20260502160359 | 75 | 185 | 4.0 | 11.0 | 0.00 | 0.00 | 0.00 | 35 | 468.0 |
| 20260502151400 | 76 | 268 | 4.0 | 11.0 | 0.00 | 0.00 | 0.00 | 34 | 599.8 |
| 20260502150359 | 76 | 245 | 3.0 | 8.0 | 0.00 | 0.00 | 0.00 | 33 | 433.4 |
| 20260502130400 | 74 | 225 | 3.0 | 12.0 | 0.00 | 0.00 | 0.00 | 34 | 486.4 |
| 20260502123400 | 74 | 258 | 7.0 | 12.0 | 0.00 | 0.00 | 0.00 | 34 | 461.9 |
| 20260502122401 | 74 | 267 | 4.0 | 10.0 | 0.00 | 0.00 | 0.00 | 35 | 470.2 |
| 20260502121400 | 73 | 231 | 5.0 | 12.0 | 0.00 | 0.00 | 0.00 | 34 | 439.6 |
| 20260502120836 | 73 | 279 | 6.0 | 15.0 | 0.00 | 0.00 | 0.00 | 36 | 488.2 |
| 20260502115400 | 73 | 252 | 5.0 | 11.0 | 0.00 | 0.00 | 0.00 | 34 | 1110.6 |
| 20260502114400 | 73 | 221 | 6.0 | 15.0 | 0.00 | 0.00 | 0.00 | 34 | 504.9 |
| 20260502113848 | 73 | 294 | 5.0 | 12.0 | 0.00 | 0.00 | 0.00 | 34 | 476.6 |
| 20260502112401 | 72 | 213 | 3.0 | 9.0 | 0.00 | 0.00 | 0.00 | 34 | 418.9 |
| 20260502111400 | 72 | 200 | 5.0 | 12.0 | 0.00 | 0.00 | 0.00 | 36 | 467.9 |
| 20260502110400 | 72 | 247 | 5.0 | 14.0 | 0.00 | 0.00 | 0.00 | 35 | 467.8 |
| 20260502105837 | 72 | 190 | 5.0 | 12.0 | 0.00 | 0.00 | 0.00 | 35 | 655.9 |
| 20260502104401 | 72 | 243 | 3.0 | 12.0 | 0.00 | 0.00 | 0.00 | 35 | 463.9 |
| 20260502103842 | 71 | 263 | 3.0 | 9.0 | 0.00 | 0.00 | 0.00 | 36 | 835.6 |
| 20260502102401 | 71 | 299 | 2.0 | 7.0 | 0.00 | 0.00 | 0.00 | 37 | 677.7 |
| 20260502101358 | 71 | 275 | 5.0 | 9.0 | 0.00 | 0.00 | 0.00 | 36 | 484.3 |
| 20260502100353 | 71 | 250 | 2.0 | 10.0 | 0.00 | 0.00 | 0.00 | 37 | 1276.8 |
| 20260502100327 | 70 | 286 | 3.0 | 10.0 | 0.00 | 0.00 | 0.00 | 39 | 582.1 |
| 20260502091341 | 69 | 212 | 2.0 | 7.0 | 0.00 | 0.00 | 0.00 | 38 | 511.8 |
| 20260502090337 | 69 | 169 | 1.0 | 5.0 | 0.00 | 0.00 | 0.00 | 39 | 575.4 |
| 20260502071327 | 62 | 40 | 0.0 | 3.0 | 0.00 | 0.00 | 0.00 | 50 | 600.3 |
| 20260502070327 | 62 | 42 | 0.0 | 0.0 | 0.00 | 0.00 | 0.00 | 51 | 462.9 |
| 20260502065329 | 62 | 42 | 0.0 | 0.0 | 0.00 | 0.00 | 0.00 | 51 | 476.4 |
| 20260502064327 | 61 | 42 | 0.0 | 0.0 | 0.00 | 0.00 | 0.00 | 52 | 675.6 |
| 20260502063327 | 60 | 42 | 0.0 | 2.0 | 0.00 | 0.00 | 0.00 | 54 | 496.9 |
| 20260502062329 | 59 | 42 | 1.0 | 4.0 | 0.00 | 0.00 | 0.00 | 55 | 583.9 |
| 20260502061324 | 58 | 42 | 1.0 | 4.0 | 0.00 | 0.00 | 0.00 | 56 | 476.0 |
| 20260502060815 | 58 | 42 | 1.0 | 5.0 | 0.00 | 0.00 | 0.00 | 57 | 530.1 |
| 20260502055320 | 57 | 42 | 0.0 | 4.0 | 0.00 | 0.00 | 0.00 | 56 | 482.5 |
| 20260502054322 | 57 | 42 | 0.0 | 0.0 | 0.00 | 0.00 | 0.00 | 59 | 508.9 |
| 20260502053806 | 56 | 42 | 0.0 | 0.0 | 0.00 | 0.00 | 0.00 | 60 | 482.2 |